Year,Month,Day,Hour,Minute,Value (Times are PST for temperature in C)
2014,01,17,00,00,5.70
2014,01,17,00,01,5.70
2014,01,17,00,02,5.70
2014,01,17,00,03,5.70
2014,01,17,00,04,5.70
2014,01,17,00,05,5.70
2014,01,17,00,06,5.70
2014,01,17,00,07,5.70
2014,01,17,00,08,5.70
2014,01,17,00,09,5.70
2014,01,17,00,10,5.70
2014,01,17,00,11,5.70
2014,01,17,00,12,5.70
2014,01,17,00,13,5.70
2014,01,17,00,14,5.70
2014,01,17,00,15,5.70
2014,01,17,00,16,5.70
2014,01,17,00,17,5.70
2014,01,17,00,18,5.70
2014,01,17,00,19,5.70
2014,01,17,00,20,5.70
2014,01,17,00,21,5.70
2014,01,17,00,22,5.70
2014,01,17,00,23,5.70
2014,01,17,00,24,5.70
2014,01,17,00,25,5.70
2014,01,17,00,26,5.70
2014,01,17,00,27,5.70
2014,01,17,00,28,5.70
2014,01,17,00,29,5.70
2014,01,17,00,30,5.70
2014,01,17,00,31,5.70
2014,01,17,00,32,5.70
2014,01,17,00,33,5.70
2014,01,17,00,34,5.70
2014,01,17,00,35,5.70
2014,01,17,00,36,5.70
2014,01,17,00,37,5.70
2014,01,17,00,38,5.70
2014,01,17,00,39,5.70
2014,01,17,00,40,5.70
2014,01,17,00,41,5.70
2014,01,17,00,42,5.70
2014,01,17,00,43,5.70
2014,01,17,00,44,5.70
2014,01,17,00,45,5.70
2014,01,17,00,46,5.70
2014,01,17,00,47,5.70
2014,01,17,00,48,5.70
2014,01,17,00,49,5.70
2014,01,17,00,50,5.70
2014,01,17,00,51,5.70
2014,01,17,00,52,5.70
2014,01,17,00,53,5.70
2014,01,17,00,54,5.70
2014,01,17,00,55,5.70
2014,01,17,00,56,5.70
2014,01,17,00,57,5.70
2014,01,17,00,58,5.70
2014,01,17,00,59,5.70
2014,01,17,01,00,5.70
2014,01,17,01,01,5.60
2014,01,17,01,02,5.60
2014,01,17,01,03,5.60
2014,01,17,01,04,5.60
2014,01,17,01,05,5.60
2014,01,17,01,06,5.60
2014,01,17,01,07,5.60
2014,01,17,01,08,5.60
2014,01,17,01,09,5.60
2014,01,17,01,10,5.60
2014,01,17,01,11,5.60
2014,01,17,01,12,5.60
2014,01,17,01,13,5.60
2014,01,17,01,14,5.60
2014,01,17,01,15,5.60
2014,01,17,01,16,5.60
2014,01,17,01,17,5.60
2014,01,17,01,18,5.60
2014,01,17,01,19,5.60
2014,01,17,01,20,5.60
2014,01,17,01,21,5.60
2014,01,17,01,22,5.60
2014,01,17,01,23,5.60
2014,01,17,01,24,5.60
2014,01,17,01,25,5.60
2014,01,17,01,26,5.60
2014,01,17,01,27,5.60
2014,01,17,01,28,5.60
2014,01,17,01,29,5.60
2014,01,17,01,30,5.60
2014,01,17,01,31,5.60
2014,01,17,01,32,5.60
2014,01,17,01,33,5.60
2014,01,17,01,34,5.60
2014,01,17,01,35,5.60
2014,01,17,01,36,5.60
2014,01,17,01,37,5.60
2014,01,17,01,38,5.60
2014,01,17,01,39,5.60
2014,01,17,01,40,5.60
2014,01,17,01,41,5.60
2014,01,17,01,42,5.60
2014,01,17,01,43,5.60
2014,01,17,01,44,5.60
2014,01,17,01,45,5.60
2014,01,17,01,49,5.60
2014,01,17,01,50,5.60
2014,01,17,01,51,5.60
2014,01,17,01,52,5.50
2014,01,17,01,53,5.60
2014,01,17,01,54,5.60
2014,01,17,01,55,5.50
2014,01,17,01,56,5.50
2014,01,17,01,57,5.50
2014,01,17,01,58,5.50
2014,01,17,01,59,5.50
2014,01,17,02,00,5.50
2014,01,17,02,01,5.50
2014,01,17,02,02,5.50
2014,01,17,02,03,5.50
2014,01,17,02,04,5.50
2014,01,17,02,05,5.50
2014,01,17,02,06,5.50
2014,01,17,02,07,5.50
2014,01,17,02,08,5.50
2014,01,17,02,09,5.50
2014,01,17,02,10,5.50
2014,01,17,02,11,5.50
2014,01,17,02,12,5.50
2014,01,17,02,13,5.50
2014,01,17,02,14,5.50
2014,01,17,02,15,5.50
2014,01,17,02,16,5.50
2014,01,17,02,17,5.50
2014,01,17,02,18,5.50
2014,01,17,02,19,5.50
2014,01,17,02,20,5.50
2014,01,17,02,21,5.50
2014,01,17,02,22,5.50
2014,01,17,02,23,5.50
2014,01,17,02,24,5.50
2014,01,17,02,25,5.50
2014,01,17,02,26,5.50
2014,01,17,02,27,5.50
2014,01,17,02,28,5.50
2014,01,17,02,29,5.50
2014,01,17,02,30,5.50
2014,01,17,02,31,5.50
2014,01,17,02,32,5.50
2014,01,17,02,33,5.50
2014,01,17,02,34,5.50
2014,01,17,02,35,5.50
2014,01,17,02,36,5.50
2014,01,17,02,37,5.50
2014,01,17,02,38,5.50
2014,01,17,02,39,5.50
2014,01,17,02,40,5.50
2014,01,17,02,41,5.50
2014,01,17,02,42,5.60
2014,01,17,02,43,5.50
2014,01,17,02,44,5.60
2014,01,17,02,45,5.60
2014,01,17,02,46,5.60
2014,01,17,02,47,5.60
2014,01,17,02,48,5.60
2014,01,17,02,49,5.60
2014,01,17,02,50,5.60
2014,01,17,02,51,5.60
2014,01,17,02,52,5.60
2014,01,17,02,53,5.60
2014,01,17,02,54,5.60
2014,01,17,02,55,5.60
2014,01,17,02,56,5.60
2014,01,17,02,57,5.50
2014,01,17,02,58,5.50
2014,01,17,02,59,5.50
2014,01,17,03,00,5.50
2014,01,17,03,01,5.50
2014,01,17,03,02,5.50
2014,01,17,03,03,5.50
2014,01,17,03,04,5.50
2014,01,17,03,05,5.60
2014,01,17,03,06,5.60
2014,01,17,03,07,5.60
2014,01,17,03,08,5.60
2014,01,17,03,09,5.60
2014,01,17,03,10,5.60
2014,01,17,03,11,5.60
2014,01,17,03,12,5.60
2014,01,17,03,13,5.60
2014,01,17,03,14,5.60
2014,01,17,03,15,5.60
2014,01,17,03,16,5.60
2014,01,17,03,17,5.60
2014,01,17,03,18,5.60
2014,01,17,03,19,5.60
2014,01,17,03,20,5.60
2014,01,17,03,21,5.60
2014,01,17,03,22,5.60
2014,01,17,03,23,5.60
2014,01,17,03,24,5.60
2014,01,17,03,25,5.60
2014,01,17,03,26,5.60
2014,01,17,03,27,5.60
2014,01,17,03,28,5.60
2014,01,17,03,29,5.60
2014,01,17,03,30,5.60
2014,01,17,03,31,5.60
2014,01,17,03,32,5.60
2014,01,17,03,33,5.60
2014,01,17,03,34,5.60
2014,01,17,03,35,5.60
2014,01,17,03,36,5.60
2014,01,17,03,37,5.60
2014,01,17,03,38,5.60
2014,01,17,03,39,5.60
2014,01,17,03,40,5.60
2014,01,17,03,41,5.50
2014,01,17,03,42,5.50
2014,01,17,03,43,5.60
2014,01,17,03,44,5.50
2014,01,17,03,45,5.50
2014,01,17,03,46,5.50
2014,01,17,03,47,5.50
2014,01,17,03,48,5.50
2014,01,17,03,49,5.50
2014,01,17,03,50,5.50
2014,01,17,03,51,5.50
2014,01,17,03,52,5.50
2014,01,17,03,53,5.50
2014,01,17,03,54,5.50
2014,01,17,03,55,5.50
2014,01,17,03,56,5.50
2014,01,17,03,57,5.50
2014,01,17,03,58,5.50
2014,01,17,03,59,5.50
2014,01,17,04,00,5.50
2014,01,17,04,01,5.50
2014,01,17,04,02,5.50
2014,01,17,04,03,5.50
2014,01,17,04,04,5.50
2014,01,17,04,05,5.50
2014,01,17,04,06,5.50
2014,01,17,04,07,5.50
2014,01,17,04,08,5.50
2014,01,17,04,09,5.50
2014,01,17,04,10,5.50
2014,01,17,04,11,5.50
2014,01,17,04,12,5.50
2014,01,17,04,13,5.50
2014,01,17,04,14,5.50
2014,01,17,04,15,5.50
2014,01,17,04,16,5.50
2014,01,17,04,17,5.50
2014,01,17,04,18,5.50
2014,01,17,04,19,5.50
2014,01,17,04,20,5.50
2014,01,17,04,21,5.50
2014,01,17,04,22,5.50
2014,01,17,04,23,5.50
2014,01,17,04,24,5.50
2014,01,17,04,25,5.50
2014,01,17,04,26,5.50
2014,01,17,04,27,5.50
2014,01,17,04,28,5.50
2014,01,17,04,29,5.50
2014,01,17,04,30,5.50
2014,01,17,04,31,5.50
2014,01,17,04,32,5.50
2014,01,17,04,33,5.60
2014,01,17,04,34,5.60
2014,01,17,04,35,5.60
2014,01,17,04,36,5.60
2014,01,17,04,37,5.70
2014,01,17,04,38,5.70
2014,01,17,04,39,5.70
2014,01,17,04,40,5.70
2014,01,17,04,41,5.70
2014,01,17,04,42,5.70
2014,01,17,04,43,5.70
2014,01,17,04,44,5.70
2014,01,17,04,45,5.70
2014,01,17,04,46,5.70
2014,01,17,04,47,5.70
2014,01,17,04,48,5.70
2014,01,17,04,49,5.70
2014,01,17,04,50,5.70
2014,01,17,04,51,5.70
2014,01,17,04,52,5.70
2014,01,17,04,53,5.70
2014,01,17,04,54,5.70
2014,01,17,04,55,5.60
2014,01,17,04,56,5.60
2014,01,17,04,57,5.60
2014,01,17,04,58,5.60
2014,01,17,04,59,5.60
2014,01,17,05,00,5.60
2014,01,17,05,01,5.60
2014,01,17,05,02,5.60
2014,01,17,05,03,5.60
2014,01,17,05,04,5.60
2014,01,17,05,05,5.60
2014,01,17,05,06,5.60
2014,01,17,05,07,5.60
2014,01,17,05,08,5.60
2014,01,17,05,09,5.60
2014,01,17,05,10,5.60
2014,01,17,05,11,5.60
2014,01,17,05,12,5.60
2014,01,17,05,13,5.60
2014,01,17,05,14,5.60
2014,01,17,05,15,5.60
2014,01,17,05,16,5.60
2014,01,17,05,17,5.60
2014,01,17,05,18,5.60
2014,01,17,05,19,5.60
2014,01,17,05,20,5.60
2014,01,17,05,21,5.60
2014,01,17,05,22,5.60
2014,01,17,05,23,5.60
2014,01,17,05,24,5.60
2014,01,17,05,25,5.60
2014,01,17,05,26,5.60
2014,01,17,05,27,5.60
2014,01,17,05,28,5.60
2014,01,17,05,29,5.60
2014,01,17,05,30,5.60
2014,01,17,05,31,5.60
2014,01,17,05,32,5.60
2014,01,17,05,33,5.60
2014,01,17,05,34,5.60
2014,01,17,05,35,5.60
2014,01,17,05,36,5.60
2014,01,17,05,37,5.60
2014,01,17,05,38,5.60
2014,01,17,05,39,5.60
2014,01,17,05,40,5.60
2014,01,17,05,41,5.60
2014,01,17,05,42,5.60
2014,01,17,05,43,5.60
2014,01,17,05,44,5.60
2014,01,17,05,45,5.60
2014,01,17,05,46,5.60
2014,01,17,05,47,5.60
2014,01,17,05,48,5.60
2014,01,17,05,49,5.60
2014,01,17,05,50,5.60
2014,01,17,05,51,5.60
2014,01,17,05,52,5.60
2014,01,17,05,53,5.60
2014,01,17,05,54,5.60
2014,01,17,05,55,5.60
2014,01,17,05,56,5.60
2014,01,17,05,57,5.60
2014,01,17,05,58,5.60
2014,01,17,05,59,5.60
2014,01,17,06,00,5.60
2014,01,17,06,01,5.60
2014,01,17,06,02,5.60
2014,01,17,06,03,5.60
2014,01,17,06,04,5.60
2014,01,17,06,05,5.60
2014,01,17,06,06,5.60
2014,01,17,06,07,5.60
2014,01,17,06,08,5.60
2014,01,17,06,09,5.60
2014,01,17,06,10,5.60
2014,01,17,06,11,5.60
2014,01,17,06,12,5.60
2014,01,17,06,13,5.60
2014,01,17,06,14,5.60
2014,01,17,06,15,5.60
2014,01,17,06,16,5.60
2014,01,17,06,17,5.60
2014,01,17,06,18,5.60
2014,01,17,06,19,5.60
2014,01,17,06,20,5.60
2014,01,17,06,21,5.60
2014,01,17,06,22,5.60
2014,01,17,06,23,5.60
2014,01,17,06,24,5.60
2014,01,17,06,25,5.60
2014,01,17,06,26,5.60
2014,01,17,06,27,5.60
2014,01,17,06,28,5.60
2014,01,17,06,29,5.60
2014,01,17,06,30,5.60
2014,01,17,06,31,5.60
2014,01,17,06,32,5.60
2014,01,17,06,33,5.60
2014,01,17,06,34,5.60
2014,01,17,06,35,5.60
2014,01,17,06,36,5.60
2014,01,17,06,37,5.60
2014,01,17,06,38,5.60
2014,01,17,06,39,5.60
2014,01,17,06,40,5.60
2014,01,17,06,41,5.60
2014,01,17,06,42,5.60
2014,01,17,06,43,5.60
2014,01,17,06,44,5.50
2014,01,17,06,45,5.50
2014,01,17,06,46,5.50
2014,01,17,06,47,5.50
2014,01,17,06,48,5.50
2014,01,17,06,49,5.50
2014,01,17,06,50,5.50
2014,01,17,06,51,5.50
2014,01,17,06,52,5.50
2014,01,17,06,53,5.50
2014,01,17,06,54,5.50
2014,01,17,06,55,5.50
2014,01,17,06,56,5.50
2014,01,17,06,57,5.50
2014,01,17,06,58,5.50
2014,01,17,06,59,5.50
2014,01,17,07,00,5.50
2014,01,17,07,01,5.50
2014,01,17,07,02,5.50
2014,01,17,07,03,5.50
2014,01,17,07,04,5.50
2014,01,17,07,05,5.50
2014,01,17,07,06,5.50
2014,01,17,07,07,5.50
2014,01,17,07,08,5.50
2014,01,17,07,09,5.50
2014,01,17,07,10,5.50
2014,01,17,07,11,5.50
2014,01,17,07,12,5.50
2014,01,17,07,13,5.50
2014,01,17,07,14,5.50
2014,01,17,07,15,5.50
2014,01,17,07,16,5.50
2014,01,17,07,17,5.50
2014,01,17,07,18,5.40
2014,01,17,07,19,5.40
2014,01,17,07,20,5.40
2014,01,17,07,21,5.40
2014,01,17,07,22,5.40
2014,01,17,07,23,5.40
2014,01,17,07,24,5.40
2014,01,17,07,25,5.40
2014,01,17,07,26,5.40
2014,01,17,07,27,5.40
2014,01,17,07,28,5.40
2014,01,17,07,29,5.40
2014,01,17,07,30,5.40
2014,01,17,07,31,5.40
2014,01,17,07,32,5.40
2014,01,17,07,33,5.40
2014,01,17,13,50,5.60
2014,01,17,13,51,5.60
2014,01,17,13,52,5.60
2014,01,17,13,53,5.60
2014,01,17,13,54,5.60
2014,01,17,13,55,5.60
2014,01,17,13,56,5.50
2014,01,17,13,57,5.50
2014,01,17,13,58,5.50
2014,01,17,13,59,5.50
2014,01,17,14,00,5.50
2014,01,17,14,01,5.50
2014,01,17,14,02,5.50
2014,01,17,14,03,5.50
2014,01,17,14,04,5.50
2014,01,17,14,05,5.60
2014,01,17,14,06,5.60
2014,01,17,14,07,5.60
2014,01,17,14,08,5.60
2014,01,17,14,09,5.60
2014,01,17,14,10,5.70
2014,01,17,14,11,5.70
2014,01,17,14,12,5.70
2014,01,17,14,13,5.70
2014,01,17,14,14,5.70
2014,01,17,14,15,5.70
2014,01,17,14,16,5.70
2014,01,17,14,17,5.70
2014,01,17,14,18,5.70
2014,01,17,14,19,5.70
2014,01,17,14,20,5.70
2014,01,17,14,21,5.70
2014,01,17,14,22,5.70
2014,01,17,14,23,5.70
2014,01,17,14,24,5.70
2014,01,17,14,25,5.70
2014,01,17,14,26,5.70
2014,01,17,14,27,5.70
2014,01,17,14,28,5.70
2014,01,17,14,29,5.70
2014,01,17,14,30,5.70
2014,01,17,14,31,5.70
2014,01,17,14,32,5.70
2014,01,17,14,33,5.70
2014,01,17,14,34,5.70
2014,01,17,14,35,5.70
2014,01,17,14,36,5.70
2014,01,17,14,37,5.70
2014,01,17,14,38,5.70
2014,01,17,14,39,5.70
2014,01,17,14,40,5.70
2014,01,17,14,41,5.70
2014,01,17,14,42,5.70
2014,01,17,14,43,5.70
2014,01,17,14,44,5.70
2014,01,17,14,45,5.70
2014,01,17,14,46,5.70
2014,01,17,14,47,5.70
2014,01,17,14,48,5.70
2014,01,17,14,49,5.70
2014,01,17,14,50,5.60
2014,01,17,14,51,5.60
2014,01,17,14,52,5.60
2014,01,17,14,53,5.60
2014,01,17,14,54,5.60
2014,01,17,14,55,5.60
2014,01,17,14,56,5.60
2014,01,17,14,57,5.60
2014,01,17,14,58,5.60
2014,01,17,14,59,5.50
2014,01,17,15,00,5.50
2014,01,17,15,01,5.50
2014,01,17,15,02,5.40
2014,01,17,15,03,5.40
2014,01,17,15,04,5.40
2014,01,17,15,05,5.40
2014,01,17,15,06,5.40
2014,01,17,15,07,5.40
2014,01,17,15,08,5.50
2014,01,17,15,09,5.50
2014,01,17,15,10,5.50
2014,01,17,15,11,5.50
2014,01,17,15,12,5.50
2014,01,17,15,13,5.50
2014,01,17,15,14,5.50
2014,01,17,15,15,5.40
2014,01,17,15,16,5.40
2014,01,17,15,17,5.40
2014,01,17,15,18,5.40
2014,01,17,15,19,5.30
2014,01,17,15,20,5.30
2014,01,17,15,21,5.30
2014,01,17,15,22,5.30
2014,01,17,15,23,5.30
2014,01,17,15,24,5.30
2014,01,17,15,25,5.20
2014,01,17,15,26,5.30
2014,01,17,15,27,5.30
2014,01,17,15,28,5.30
2014,01,17,15,29,5.30
2014,01,17,15,30,5.30
2014,01,17,15,31,5.30
2014,01,17,15,32,5.30
2014,01,17,15,33,5.30
2014,01,17,15,34,5.30
2014,01,17,15,35,5.30
2014,01,17,15,36,5.30
2014,01,17,15,37,5.20
2014,01,17,15,38,5.20
2014,01,17,15,39,5.20
2014,01,17,15,40,5.20
2014,01,17,15,41,5.20
2014,01,17,15,42,5.20
2014,01,17,15,43,5.20
2014,01,17,15,44,5.20
2014,01,17,15,45,5.10
2014,01,17,15,46,5.10
2014,01,17,15,47,5.10
2014,01,17,15,48,5.10
2014,01,17,15,49,5.10
2014,01,17,15,50,5.10
2014,01,17,15,51,5.00
2014,01,17,15,52,4.90
2014,01,17,15,53,4.90
2014,01,17,15,54,4.90
2014,01,17,15,55,4.90
2014,01,17,15,56,4.90
2014,01,17,15,57,4.80
2014,01,17,15,58,4.80
2014,01,17,15,59,4.80
2014,01,17,16,00,4.80
2014,01,17,16,01,4.80
2014,01,17,16,02,4.80
2014,01,17,16,03,4.80
2014,01,17,16,04,4.80
2014,01,17,16,05,4.70
2014,01,17,16,06,4.70
2014,01,17,16,07,4.70
2014,01,17,16,08,4.70
2014,01,17,16,09,4.70
2014,01,17,16,10,4.70
2014,01,17,16,11,4.70
2014,01,17,16,12,4.70
2014,01,17,16,13,4.70
2014,01,17,16,14,4.70
2014,01,17,16,15,4.70
2014,01,17,16,16,4.70
2014,01,17,16,17,4.70
2014,01,17,16,18,4.70
2014,01,17,16,19,4.70
2014,01,17,16,20,4.70
2014,01,17,16,21,4.70
2014,01,17,16,22,4.70
2014,01,17,16,23,4.60
2014,01,17,16,24,4.60
2014,01,17,16,25,4.60
2014,01,17,16,26,4.60
2014,01,17,16,27,4.60
2014,01,17,16,28,4.60
2014,01,17,16,29,4.60
2014,01,17,16,30,4.60
2014,01,17,16,31,4.60
2014,01,17,16,32,4.60
2014,01,17,16,33,4.60
2014,01,17,16,34,4.60
2014,01,17,16,35,4.60
2014,01,17,16,36,4.60
2014,01,17,16,37,4.60
2014,01,17,16,38,4.60
2014,01,17,16,39,4.60
2014,01,17,16,40,4.60
2014,01,17,16,41,4.60
2014,01,17,16,42,4.50
2014,01,17,16,43,4.50
2014,01,17,16,44,4.50
2014,01,17,16,45,4.50
2014,01,17,16,46,4.50
2014,01,17,16,47,4.50
2014,01,17,16,48,4.50
2014,01,17,16,49,4.60
2014,01,17,16,50,4.60
2014,01,17,16,51,4.60
2014,01,17,16,52,4.60
2014,01,17,16,53,4.60
2014,01,17,16,54,4.60
2014,01,17,16,55,4.60
2014,01,17,16,56,4.60
2014,01,17,16,57,4.50
2014,01,17,16,58,4.50
2014,01,17,16,59,4.50
2014,01,17,17,00,4.50
2014,01,17,17,01,4.50
2014,01,17,17,02,4.50
2014,01,17,17,03,4.40
2014,01,17,17,04,4.40
2014,01,17,17,05,4.40
2014,01,17,17,06,4.40
2014,01,17,17,07,4.40
2014,01,17,17,08,4.40
2014,01,17,17,09,4.40
2014,01,17,17,10,4.40
2014,01,17,17,11,4.40
2014,01,17,17,12,4.40
2014,01,17,17,13,4.40
2014,01,17,17,14,4.40
2014,01,17,17,15,4.40
2014,01,17,17,16,4.40
2014,01,17,17,17,4.40
2014,01,17,17,18,4.40
2014,01,17,17,19,4.40
2014,01,17,17,20,4.40
2014,01,17,17,21,4.40
2014,01,17,17,22,4.40
2014,01,17,17,23,4.40
2014,01,17,17,24,4.40
2014,01,17,17,25,4.40
2014,01,17,17,26,4.40
2014,01,17,17,27,4.40
2014,01,17,17,28,4.40
2014,01,17,17,29,4.40
2014,01,17,17,30,4.40
2014,01,17,17,31,4.40
2014,01,17,17,32,4.40
2014,01,17,17,33,4.40
2014,01,17,17,34,4.40
2014,01,17,17,35,4.40
2014,01,17,17,36,4.40
2014,01,17,17,37,4.40
2014,01,17,17,38,4.40
2014,01,17,17,39,4.40
2014,01,17,17,40,4.40
2014,01,17,17,41,4.40
2014,01,17,17,42,4.40
2014,01,17,17,43,4.40
2014,01,17,17,44,4.40
2014,01,17,17,45,4.40
2014,01,17,17,46,4.40
2014,01,17,17,47,4.40
2014,01,17,17,48,4.40
2014,01,17,17,49,4.40
2014,01,17,17,50,4.50
2014,01,17,17,51,4.50
2014,01,17,17,52,4.50
2014,01,17,17,53,4.50
2014,01,17,17,54,4.50
2014,01,17,17,55,4.40
2014,01,17,17,56,4.40
2014,01,17,17,57,4.40
2014,01,17,17,58,4.40
2014,01,17,17,59,4.40
2014,01,17,18,00,4.40
2014,01,17,18,01,4.40
2014,01,17,18,02,4.30
2014,01,17,18,03,4.30
2014,01,17,18,04,4.30
2014,01,17,18,05,4.30
2014,01,17,18,06,4.30
2014,01,17,18,07,4.30
2014,01,17,18,08,4.30
2014,01,17,18,09,4.20
2014,01,17,18,10,4.20
2014,01,17,18,11,4.20
2014,01,17,18,12,4.20
2014,01,17,18,13,4.20
2014,01,17,18,14,4.20
2014,01,17,18,15,4.20
2014,01,17,18,16,4.20
2014,01,17,18,17,4.20
2014,01,17,18,18,4.20
2014,01,17,18,19,4.20
2014,01,17,18,20,4.20
2014,01,17,18,21,4.10
2014,01,17,18,22,4.10
2014,01,17,18,23,4.10
2014,01,17,18,24,4.10
2014,01,17,18,25,4.10
2014,01,17,18,26,4.10
2014,01,17,18,27,4.10
2014,01,17,18,28,4.00
2014,01,17,18,29,4.00
2014,01,17,18,30,4.00
2014,01,17,18,31,4.00
2014,01,17,18,32,4.00
2014,01,17,18,33,4.00
2014,01,17,18,34,4.00
2014,01,17,18,35,4.00
2014,01,17,18,36,4.00
2014,01,17,18,37,4.00
2014,01,17,18,38,4.00
2014,01,17,18,39,4.10
2014,01,17,18,40,4.10
2014,01,17,18,41,4.10
2014,01,17,18,42,4.10
2014,01,17,18,43,4.10
2014,01,17,18,44,4.10
2014,01,17,18,45,4.10
2014,01,17,18,46,4.10
2014,01,17,18,47,4.10
2014,01,17,18,48,4.10
2014,01,17,18,49,4.10
2014,01,17,18,50,4.10
2014,01,17,18,51,4.10
2014,01,17,18,52,4.10
2014,01,17,18,53,4.10
2014,01,17,18,54,4.10
2014,01,17,18,55,4.10
2014,01,17,18,56,4.10
2014,01,17,18,57,4.10
2014,01,17,18,58,4.10
2014,01,17,18,59,4.10
2014,01,17,19,00,4.10
2014,01,17,19,01,4.10
2014,01,17,19,02,4.10
2014,01,17,19,03,4.10
2014,01,17,19,04,4.10
2014,01,17,19,05,4.10
2014,01,17,19,06,4.10
2014,01,17,19,07,4.10
2014,01,17,19,08,4.10
2014,01,17,19,09,4.10
2014,01,17,19,10,4.10
2014,01,17,19,11,4.10
2014,01,17,19,12,4.10
2014,01,17,19,13,4.10
2014,01,17,19,14,4.10
2014,01,17,19,15,4.10
2014,01,17,19,16,4.10
2014,01,17,19,17,4.10
2014,01,17,19,18,4.10
2014,01,17,19,19,4.10
2014,01,17,19,20,4.10
2014,01,17,19,21,4.10
2014,01,17,19,22,4.10
2014,01,17,19,23,4.10
2014,01,17,19,24,4.10
2014,01,17,19,25,4.10
2014,01,17,19,26,4.10
2014,01,17,19,27,4.10
2014,01,17,19,28,4.10
2014,01,17,19,29,4.10
2014,01,17,19,30,4.10
2014,01,17,19,31,4.10
2014,01,17,19,32,4.10
2014,01,17,19,33,4.10
2014,01,17,19,34,4.10
2014,01,17,19,35,4.10
2014,01,17,19,36,4.10
2014,01,17,19,37,4.10
2014,01,17,19,38,4.10
2014,01,17,19,39,4.10
2014,01,17,19,40,4.10
2014,01,17,19,41,4.10
2014,01,17,19,42,4.10
2014,01,17,19,43,4.10
2014,01,17,19,44,4.10
2014,01,17,19,45,4.10
2014,01,17,19,46,4.10
2014,01,17,19,47,4.10
2014,01,17,19,48,4.10
2014,01,17,19,49,4.10
2014,01,17,19,50,4.10
2014,01,17,19,51,4.10
2014,01,17,19,52,4.10
2014,01,17,19,53,4.10
2014,01,17,19,54,4.10
2014,01,17,19,55,4.00
2014,01,17,19,56,4.00
2014,01,17,19,57,4.00
2014,01,17,19,58,4.00
2014,01,17,19,59,4.00
2014,01,17,20,00,4.00
2014,01,17,20,01,4.00
2014,01,17,20,02,4.00
2014,01,17,20,03,4.00
2014,01,17,20,04,3.90
2014,01,17,20,05,3.90
2014,01,17,20,06,3.90
2014,01,17,20,07,3.90
2014,01,17,20,08,3.90
2014,01,17,20,09,3.90
2014,01,17,20,10,3.80
2014,01,17,20,11,3.80
2014,01,17,20,12,3.80
2014,01,17,20,13,3.80
2014,01,17,20,14,3.80
2014,01,17,20,15,3.80
2014,01,17,20,16,3.80
2014,01,17,20,17,3.80
2014,01,17,20,18,3.80
2014,01,17,20,19,3.80
2014,01,17,20,20,3.80
2014,01,17,20,21,3.80
2014,01,17,20,22,3.80
2014,01,17,20,23,3.80
2014,01,17,20,24,3.80
2014,01,17,20,25,3.80
2014,01,17,20,26,3.80
2014,01,17,20,27,3.80
2014,01,17,20,28,3.80
2014,01,17,20,29,3.80
2014,01,17,20,30,3.80
2014,01,17,20,31,3.80
2014,01,17,20,32,3.80
2014,01,17,20,33,3.80
2014,01,17,20,34,3.80
2014,01,17,20,35,3.80
2014,01,17,20,36,3.80
2014,01,17,20,37,3.80
2014,01,17,20,38,3.80
2014,01,17,20,39,3.80
2014,01,17,20,40,3.80
2014,01,17,20,41,3.80
2014,01,17,20,42,3.80
2014,01,17,20,43,3.80
2014,01,17,20,44,3.80
2014,01,17,20,45,3.90
2014,01,17,20,46,3.90
2014,01,17,20,47,3.90
2014,01,17,20,48,3.90
2014,01,17,20,49,3.90
2014,01,17,20,50,3.90
2014,01,17,20,51,3.90
2014,01,17,20,52,3.90
2014,01,17,20,53,3.90
2014,01,17,20,54,3.90
2014,01,17,20,55,3.90
2014,01,17,20,56,3.90
2014,01,17,20,57,3.90
2014,01,17,20,58,3.90
2014,01,17,20,59,3.90
2014,01,17,21,00,3.90
2014,01,17,21,01,3.90
2014,01,17,21,02,3.90
2014,01,17,21,03,3.90
2014,01,17,21,04,3.90
2014,01,17,21,05,3.90
2014,01,17,21,06,3.90
2014,01,17,21,07,3.90
2014,01,17,21,08,3.90
2014,01,17,21,09,3.90
2014,01,17,21,10,3.90
2014,01,17,21,11,3.90
2014,01,17,21,12,3.90
2014,01,17,21,13,3.90
2014,01,17,21,14,3.90
2014,01,17,21,15,3.90
2014,01,17,21,16,3.90
2014,01,17,21,17,3.90
2014,01,17,21,18,3.90
2014,01,17,21,19,3.90
2014,01,17,21,20,3.90
2014,01,17,21,21,3.90
2014,01,17,21,22,3.90
2014,01,17,21,23,3.90
2014,01,17,21,24,3.90
2014,01,17,21,25,3.90
2014,01,17,21,26,3.90
2014,01,17,21,27,3.90
2014,01,17,21,28,3.90
2014,01,17,21,29,3.90
2014,01,17,21,30,3.90
2014,01,17,21,31,3.90
2014,01,17,21,32,3.90
2014,01,17,21,33,3.90
2014,01,17,21,34,3.90
2014,01,17,21,35,3.90
2014,01,17,21,36,3.90
2014,01,17,21,37,3.90
2014,01,17,21,38,3.90
2014,01,17,21,39,3.90
2014,01,17,21,40,3.90
2014,01,17,21,41,3.90
2014,01,17,21,42,3.90
2014,01,17,21,43,3.90
2014,01,17,21,44,3.90
2014,01,17,21,45,3.90
2014,01,17,21,46,3.90
2014,01,17,21,47,3.90
2014,01,17,21,48,3.90
2014,01,17,21,49,3.90
2014,01,17,21,50,3.90
2014,01,17,21,51,3.90
2014,01,17,21,52,3.90
2014,01,17,21,53,3.90
2014,01,17,21,54,3.90
2014,01,17,21,55,3.90
2014,01,17,21,56,3.90
2014,01,17,21,57,3.90
2014,01,17,21,58,3.90
2014,01,17,21,59,3.90
2014,01,17,22,00,3.90
2014,01,17,22,01,3.90
2014,01,17,22,02,3.90
2014,01,17,22,03,3.90
2014,01,17,22,04,3.90
2014,01,17,22,05,3.90
2014,01,17,22,06,3.90
2014,01,17,22,07,3.90
2014,01,17,22,08,3.90
2014,01,17,22,09,3.90
2014,01,17,22,10,3.90
2014,01,17,22,11,3.90
2014,01,17,22,12,3.90
2014,01,17,22,13,3.90
2014,01,17,22,14,3.90
2014,01,17,22,15,3.90
2014,01,17,22,16,3.90
2014,01,17,22,17,3.90
2014,01,17,22,18,3.90
2014,01,17,22,19,3.80
2014,01,17,22,20,3.90
2014,01,17,22,21,3.90
2014,01,17,22,22,3.80
2014,01,17,22,23,3.90
2014,01,17,22,24,3.90
2014,01,17,22,25,3.90
2014,01,17,22,26,3.90
2014,01,17,22,27,3.80
2014,01,17,22,28,3.90
2014,01,17,22,29,3.80
2014,01,17,22,30,3.80
2014,01,17,22,31,3.90
2014,01,17,22,32,3.80
2014,01,17,22,33,3.90
2014,01,17,22,34,3.80
2014,01,17,22,35,3.80
2014,01,17,22,36,3.80
2014,01,17,22,37,3.80
2014,01,17,22,38,3.80
2014,01,17,22,39,3.80
2014,01,17,22,40,3.80
2014,01,17,22,41,3.80
2014,01,17,22,42,3.80
2014,01,17,22,43,3.80
2014,01,17,22,44,3.80
2014,01,17,22,45,3.80
2014,01,17,22,46,3.80
2014,01,17,22,47,3.80
2014,01,17,22,48,3.80
2014,01,17,22,49,3.80
2014,01,17,22,50,3.80
2014,01,17,22,51,3.90
2014,01,17,22,52,3.80
2014,01,17,22,53,3.80
2014,01,17,22,54,3.90
2014,01,17,22,55,3.90
2014,01,17,22,56,3.90
2014,01,17,22,57,3.90
2014,01,17,22,58,3.90
2014,01,17,22,59,3.90
2014,01,17,23,00,3.90
2014,01,17,23,01,3.90
2014,01,17,23,02,3.90
2014,01,17,23,03,3.90
2014,01,17,23,04,3.90
2014,01,17,23,05,3.90
2014,01,17,23,06,3.90
2014,01,17,23,07,3.90
2014,01,17,23,08,3.90
2014,01,17,23,09,3.90
2014,01,17,23,10,3.90
2014,01,17,23,11,3.90
2014,01,17,23,12,3.90
2014,01,17,23,13,3.90
2014,01,17,23,14,3.90
2014,01,17,23,15,3.90
2014,01,17,23,16,3.90
2014,01,17,23,17,3.90
2014,01,17,23,18,3.90
2014,01,17,23,19,3.90
2014,01,17,23,20,3.90
2014,01,17,23,21,3.90
2014,01,17,23,22,3.90
2014,01,17,23,23,3.90
2014,01,17,23,24,3.90
2014,01,17,23,25,3.90
2014,01,17,23,26,3.90
2014,01,17,23,27,3.90
2014,01,17,23,28,3.90
2014,01,17,23,29,3.90
2014,01,17,23,30,3.90
2014,01,17,23,31,3.90
2014,01,17,23,32,3.90
2014,01,17,23,33,3.90
2014,01,17,23,34,3.90
2014,01,17,23,35,3.90
2014,01,17,23,36,3.90
2014,01,17,23,37,3.90
2014,01,17,23,38,3.90
2014,01,17,23,39,3.90
2014,01,17,23,40,3.90
2014,01,17,23,41,3.90
2014,01,17,23,42,3.90
2014,01,17,23,43,3.90
2014,01,17,23,44,3.90
2014,01,17,23,45,3.90
2014,01,17,23,46,3.90
2014,01,17,23,47,3.90
2014,01,17,23,48,3.90
2014,01,17,23,49,3.90
2014,01,17,23,50,3.90
2014,01,17,23,51,3.90
2014,01,17,23,52,3.90
2014,01,17,23,53,3.90
2014,01,17,23,54,3.90
2014,01,17,23,55,3.90
2014,01,17,23,56,3.90
2014,01,17,23,57,3.90
2014,01,17,23,58,3.90
2014,01,17,23,59,3.90
